Regional Weather Roundup
Issued by NWS

Home | Current Version | Previous Version | Graphics & Text | Print | Product List | Glossary On
Versions: 1 2 3 4 5 6 7 8 9 10 11 12 13 14 15 16 17 18 19 20 21 22 23 24 25 26 27 28 29 30 31 32 33 34 35 36 37 38 39 40 41 42 43 44 45 46 47 48 49 50
000
ASUS43 KDMX 070206
RWRIA

WEATHER ROUNDUP FOR IOWA
NATIONAL WEATHER SERVICE DES MOINES IA
800 PM CST TUE DEC 06 2016

NOTE: "FAIR" INDICATES FEW OR NO CLOUDS BELOW 12,000 FEET WITH NO
SIGNIFICANT WEATHER AND/OR OBSTRUCTIONS TO VISIBILITY.

* - THESE STATIONS ARE NOT NWS STATIONS...THUS NOT UNDER NWS
QUALITY CONTROL.  THEY ALSO DO NOT REPORT WEATHER SUCH
AS PRECIPITATION OR FOG.

IAZ001>003-012>014-020>022-031>034-043>046-070300-
   NORTHWEST IOWA

CITY           SKY/WX    TMP DP  RH WIND       PRES   REMARKS
CARROLL *      CLEAR     23  16  74 W10       30.02R WCI  12
CHEROKEE *     CLEAR     19  10  69 W9G17     30.03R WCI   8
DENISON *      CLEAR     23  12  63 W15G24    30.02R WCI  10
LE MARS *      CLEAR     19   9  63 W15G22    30.06R WCI   5
ORANGE CITY *  PTCLDY    16  10  79 W16G23    30.01R WCI   0
SHELDON *      CLOUDY    18  12  79 W24G31    29.97R WCI   0
SIOUX CITY     CLEAR     22  10  60 W13       30.08R WCI  10
SPENCER        PTCLDY    18  11  74 W25G35    29.97R WCI   0
STORM LAKE *   CLEAR     18  10  73 W28       29.99R WCI  -1
$$

IAZ055>058-069>071-079>083-090>094-070300-
   SOUTHWEST IOWA

CITY           SKY/WX    TMP DP  RH WIND       PRES   REMARKS
ATLANTIC *     CLEAR     25  14  63 NW8       30.04F WCI  16
AUDUBON *      CLEAR     25  14  63 W7        30.02S WCI  17
CLARINDA *     CLEAR     25  14  63 W6        30.10R WCI  18
COUNCIL BLFS * CLEAR     27  10  50 NW12      30.06R WCI  16
CRESTON *      CLEAR     23  14  68 W9        30.05S WCI  13
HARLAN  *      CLEAR     23  14  68 NW7       30.08S WCI  15
LAMONI         CLEAR     25  15  66 W10       30.05R WCI  15
RED OAK *      CLEAR     25  14  63 W7        30.08R WCI  17
SHENANDOAH *   CLEAR     25  16  68 CALM      30.10R
$$

IAZ047>049-059>061-072>074-084-070300-
   CENTRAL IOWA

CITY           SKY/WX    TMP DP  RH WIND       PRES   REMARKS
AMES           CLEAR     26  17  68 W13       30.00S WCI  15
ANKENY *       CLEAR     27  14  59 W13       30.03R WCI  16
BOONE *        CLEAR     25  14  63 W17G24    29.99S WCI  11
CHARITON *       N/A     27  16  63 W10       30.03S WCI  17
DES MOINES     CLEAR     27  15  61 W13       30.02R WCI  16
GRINNELL*      CLEAR     27  18  67 W14G21    29.99S WCI  16
KNOXVILLE *    CLEAR     25  16  68 W8        30.01S WCI  16
MARSHALLTOWN   CLEAR     24  17  74 W12       29.98R WCI  13
NEWTON *       CLEAR     27  16  63 W12       30.00S WCI  16
PELLA *        CLEAR     28  17  62 W12       30.03R WCI  18
PERRY *          N/A     27  18  69 W17G25    30.02R WCI  14
$$

IAZ004>006-015-016-023>025-035-036-070300-
   NORTH CENTRAL IOWA

CITY           SKY/WX    TMP DP  RH WIND       PRES   REMARKS
ALGONA *       CLOUDY    19  14  79 W22       29.95R WCI   3
CLARION *      CLEAR     21  14  73 W24G30    29.97R WCI   4
ESTHERVILLE    CLEAR     17  11  77 W18G31    29.93R WCI   1
FORT DODGE *   CLEAR     21  10  63 W10G18    30.00R WCI  10
MASON CITY     PTCLDY    21  13  71 W29G38    29.92R WCI   3
FOREST CITY *  CLOUDY    21  14  73 W15G25    29.92R WCI   8
WEBSTER CITY * CLEAR     23  14  68 W18       29.98R WCI   9
IOWA FALLS *     N/A     24  18  75 W21       29.97R WCI  10
$$

IAZ007>011-017>019-026>030-037>042-050>054-066-070300-
   NORTHEAST IOWA

CITY           SKY/WX    TMP DP  RH WIND       PRES   REMARKS
CEDAR RAPIDS   CLEAR     25  20  81 W12       29.96S WCI  14
CHARLES CITY * CLEAR     23  16  74 W21G28    29.91R WCI   8
CLINTON *      CLEAR     27  22  81 W15       29.98R WCI  15
DECORAH *      CLOUDY    23  16  74 W9G29     29.86S WCI  13
DUBUQUE        CLEAR     24  17  74 W15G24    29.92R WCI  11
MONTICELLO *   CLEAR     27  19  74 W14G20    29.95R WCI  15
OELWEIN *      CLEAR     23  18  80 W16       29.93R WCI  10
WATERLOO       CLEAR     25  15  66 W20G28    29.95R WCI  11
$$

IAZ064-065-067-068-078-070300-
   EAST CENTRAL IOWA

CITY           SKY/WX    TMP DP  RH WIND       PRES   REMARKS
DAVENPORT      CLEAR     28  21  75 W12       29.99R WCI  18
IOWA CITY      CLEAR     27  19  72 W10       30.01R WCI  17
MUSCATINE *    CLEAR     28  19  69 W10       30.02R WCI  19
QUAD CITIES    CLEAR     28  20  71 W9        29.99R WCI  19
$$

IAZ062-063-075>077-085>089-095>099-070300-
   SOUTHEAST IOWA

CITY           SKY/WX    TMP DP  RH WIND       PRES   REMARKS
BURLINGTON     CLEAR     30  20  66 W8        30.02R WCI  22
FAIRFIELD *    CLEAR     27  18  69 W7        30.02R WCI  19
FORT MADISON * CLEAR     30  19  64 W6        30.03S WCI  24
KEOKUK *       CLEAR     30  19  64 W10       30.04R WCI  21
OSKALOOSA *      N/A     25  19  77 W9        30.02S WCI  16
CENTERVILLE *    N/A     27  18  69 W8        30.06R WCI  18
OTTUMWA        CLEAR     27  16  63 W9        30.02S WCI  18
WASHINGTON *   CLEAR     28  19  69 W9        30.02R WCI  20
$$

ABBREVIATIONS USED IN REMARKS
   TC - TEMPERATURES IN CELSIUS
  WCI - WIND CHILL INDEX
   HX - HEAT INDEX
  VSB - VISIBILITY
$$





USA.gov is the U.S. government's official web portal to all federal, state and local government web resources and services.